QPF
0.04 0.03 0.04 0.05 0.05 0.07 0.10 0.12 0.13 0.14 0.15 0.15 0.17 0.18 0.22 0.25 0.23 0.21 0.22 0.22 0.22 0.20 0.19 0.19 0.18 0.13 0.11 0.09 0.08 0.09 0.09 0.09 0.09 0.08 0.06 0.05 0.04 0.04 0.03 0.02 0.03 0.03 0.03
0.04 0.04 0.04 0.04 0.05 0.06 0.07 0.08 0.11 0.14 0.17 0.18 0.19 0.22 0.24 0.23 0.23 0.22 0.20 0.20 0.23 0.21 0.17 0.17 0.16 0.14 0.13 0.11 0.10 0.09 0.09 0.09 0.09 0.08 0.08 0.07 0.06 0.04 0.04 0.03 0.02 0.02 0.02
0.04 0.04 0.03 0.03 0.04 0.05 0.06 0.07 0.09 0.12 0.19 0.21 0.26 0.30 0.32 0.28 0.28 0.26 0.23 0.22 0.23 0.24 0.24 0.18 0.15 0.14 0.12 0.11 0.10 0.09 0.10 0.08 0.08 0.08 0.10 0.10 0.09 0.06 0.05 0.04 0.03 0.02 0.01
0.03 0.02 0.02 0.02 0.03 0.04 0.05 0.07 0.09 0.12 0.16 0.17 0.23 0.30 0.37 0.36 0.34 0.31 0.26 0.21 0.20 0.22 0.23 0.19 0.15 0.14 0.13 0.11 0.10 0.10 0.10 0.10 0.08 0.08 0.08 0.08 0.08 0.07 0.06 0.04 0.03 0.02 0.02
0.03 0.03 0.02 0.02 0.02 0.03 0.06 0.08 0.09 0.11 0.11 0.13 0.15 0.18 0.22 0.24 0.29 0.31 0.31 0.28 0.23 0.21 0.20 0.19 0.19 0.18 0.16 0.12 0.09 0.09 0.09 0.08 0.07 0.06 0.06 0.06 0.06 0.06 0.06 0.05 0.04 0.03 0.03
0.03 0.03 0.03 0.02 0.02 0.03 0.05 0.09 0.11 0.11 0.11 0.12 0.14 0.14 0.18 0.23 0.27 0.30 0.32 0.33 0.29 0.23 0.18 0.16 0.16 0.16 0.14 0.11 0.09 0.09 0.09 0.08 0.07 0.06 0.05 0.04 0.04 0.04 0.05 0.05 0.04 0.04 0.04
0.02 0.03 0.03 0.03 0.03 0.03 0.06 0.09 0.11 0.11 0.10 0.12 0.14 0.15 0.20 0.25 0.26 0.26 0.25 0.26 0.28 0.27 0.24 0.19 0.16 0.15 0.15 0.14 0.10 0.08 0.07 0.07 0.06 0.05 0.04 0.04 0.03 0.03 0.04 0.04 0.04 0.03 0.03
0.02 0.02 0.02 0.04 0.04 0.04 0.06 0.08 0.09 0.12 0.11 0.11 0.13 0.16 0.18 0.19 0.19 0.19 0.17 0.19 0.20 0.20 0.19 0.16 0.15 0.13 0.13 0.12 0.09 0.06 0.04 0.03 0.03 0.02 0.02 0.02 0.02 0.03 0.03 0.03 0.03 0.04 0.03
0.02 0.02 0.03 0.03 0.04 0.05 0.05 0.06 0.07 0.08 0.08 0.09 0.10 0.13 0.15 0.15 0.14 0.13 0.12 0.12 0.11 0.10 0.10 0.09 0.10 0.08 0.07 0.06 0.04 0.03 0.03 0.02 0.02 0.02 0.02 0.01 0.01 0.01 0.01 0.02 0.02 0.02 0.02
0.02 0.02 0.04 0.04 0.05 0.06 0.05 0.06 0.05 0.07 0.09 0.11 0.12 0.13 0.14 0.14 0.14 0.13 0.12 0.10 0.08 0.07 0.06 0.06 0.06 0.06 0.05 0.04 0.03 0.02 0.02 0.02 0.02 0.02 0.01 0.01 0.00 0.00 0.01 0.01 0.01 0.01 0.01
0.03 0.03 0.04 0.04 0.05 0.06 0.05 0.05 0.05 0.06 0.08 0.10 0.11 0.11 0.09 0.08 0.09 0.11 0.11 0.10 0.08 0.07 0.06 0.05 0.05 0.04 0.03 0.03 0.02 0.02 0.01 0.01 0.01 0.01 0.00 0.00 0.00 0.00 0.00 0.00 0.00 0.00 0.00
0.03 0.03 0.03 0.04 0.06 0.06 0.06 0.05 0.05 0.06 0.07 0.08 0.08 0.10 0.07 0.06 0.06 0.06 0.07 0.08 0.07 0.07 0.06 0.05 0.05 0.04 0.02 0.02 0.01 0.01 0.01 0.01 0.01 0.01 0.00 0.00 0.00 0.00 0.00 0.00 0.00 0.00 0.00
0.04 0.03 0.04 0.05 0.06 0.06 0.06 0.05 0.05 0.04 0.05 0.05 0.06 0.08 0.07 0.07 0.07 0.05 0.06 0.08 0.08 0.07 0.05 0.04 0.02 0.02 0.02 0.02 0.01 0.01 0.01 0.01 0.01 0.01 0.01 0.01 0.00 0.00 0.00 0.00 0.00 0.00 0.00
0.05 0.05 0.07 0.08 0.10 0.09 0.07 0.06 0.05 0.03 0.04 0.04 0.04 0.05 0.06 0.05 0.05 0.06 0.04 0.05 0.05 0.05 0.03 0.02 0.02 0.01 0.01 0.01 0.01 0.01 0.01 0.00 0.00 0.00 0.00 0.00 0.00 0.00 0.00 0.00 0.00 0.00 0.00
0.08 0.07 0.09 0.11 0.11 0.11 0.09 0.06 0.04 0.03 0.03 0.03 0.04 0.04 0.05 0.04 0.03 0.04 0.04 0.03 0.02 0.02 0.02 0.02 0.01 0.01 0.01 0.01 0.00 0.00 0.00 0.00 0.00 0.00 0.00 0.00 0.00 0.00 0.00 0.00 0.00 0.00 0.00
0.06 0.07 0.08 0.08 0.08 0.08 0.07 0.04 0.03 0.03 0.02 0.03 0.03 0.03 0.03 0.02 0.02 0.03 0.03 0.03 0.02 0.01 0.01 0.02 0.01 0.01 0.00 0.00 0.00 0.00 0.01 0.01 0.01 0.01 0.01 0.00 0.00 0.00 0.00 0.00 0.00 0.00 0.00
0.05 0.06 0.06 0.06 0.06 0.05 0.03 0.03 0.02 0.02 0.02 0.02 0.02 0.02 0.03 0.02 0.02 0.02 0.02 0.03 0.02 0.01 0.01 0.01 0.01 0.01 0.01 0.00 0.00 0.00 0.01 0.01 0.01 0.01 0.01 0.00 0.00 0.00 0.00 0.00 0.00 0.00 0.00
0.06 0.06 0.06 0.05 0.04 0.03 0.03 0.03 0.02 0.02 0.02 0.02 0.02 0.02 0.02 0.02 0.02 0.01 0.02 0.02 0.02 0.02 0.01 0.01 0.01 0.01 0.00 0.00 0.00 0.00 0.01 0.01 0.01 0.00 0.01 0.01 0.01 0.00 0.00 0.00 0.01 0.01 0.00
0.08 0.07 0.07 0.05 0.04 0.03 0.04 0.04 0.04 0.03 0.02 0.02 0.02 0.02 0.02 0.02 0.02 0.02 0.01 0.02 0.02 0.01 0.01 0.01 0.01 0.01 0.00 0.00 0.00 0.00 0.01 0.01 0.01 0.01 0.00 0.00 0.01 0.00 0.00 0.00 0.01 0.02 0.01
0.06 0.06 0.06 0.05 0.05 0.05 0.05 0.05 0.04 0.03 0.02 0.03 0.03 0.02 0.03 0.03 0.03 0.02 0.02 0.02 0.02 0.02 0.01 0.01 0.01 0.01 0.01 0.00 0.00 0.00 0.01 0.01 0.01 0.01 0.01 0.00 0.00 0.00 0.00 0.01 0.02 0.02 0.02
0.06 0.05 0.04 0.04 0.05 0.05 0.05 0.04 0.03 0.03 0.02 0.02 0.02 0.02 0.03 0.03 0.02 0.02 0.02 0.02 0.02 0.03 0.02 0.01 0.01 0.01 0.00 0.00 0.00 0.00 0.00 0.00 0.01 0.01 0.01 0.00 0.00 0.00 0.00 0.00 0.01 0.01 0.00
0.04 0.04 0.03 0.03 0.03 0.03 0.03 0.02 0.01 0.01 0.01 0.01 0.02 0.02 0.03 0.02 0.02 0.02 0.02 0.02 0.03 0.03 0.03 0.02 0.02 0.02 0.01 0.00 0.00 0.00 0.00 0.00 0.01 0.01 0.01 0.00 0.00 0.00 0.00 0.00 0.01 0.00 0.00
0.04 0.03 0.03 0.03 0.03 0.03 0.02 0.03 0.02 0.01 0.01 0.01 0.02 0.03 0.02 0.02 0.02 0.02 0.01 0.01 0.02 0.01 0.01 0.01 0.02 0.02 0.02 0.00 0.00 0.00 0.00 0.00 0.01 0.01 0.00 0.00 0.00 0.01 0.01 0.01 0.00 0.01 0.01
0.04 0.03 0.03 0.03 0.03 0.03 0.02 0.02 0.01 0.01 0.01 0.02 0.02 0.02 0.03 0.03 0.02 0.01 0.01 0.01 0.01 0.00 0.01 0.01 0.02 0.02 0.01 0.01 0.00 0.00 0.00 0.00 0.00 0.00 0.00 0.01 0.01 0.01 0.01 0.01 0.01 0.01 0.01
0.04 0.03 0.04 0.03 0.03 0.02 0.01 0.01 0.01 0.01 0.02 0.02 0.02 0.01 0.01 0.02 0.01 0.00 0.00 0.00 0.00 0.00 0.00 0.01 0.01 0.01 0.01 0.00 0.00 0.00 0.00 0.00 0.00 0.00 0.01 0.01 0.01 0.02 0.02 0.01 0.01 0.00 0.00
0.02 0.02 0.02 0.02 0.02 0.02 0.02 0.01 0.01 0.01 0.02 0.02 0.02 0.02 0.01 0.01 0.01 0.01 0.00 0.00 0.00 0.00 0.00 0.00 0.00 0.00 0.00 0.00 0.00 0.00 0.00 0.00 0.00 0.00 0.01 0.01 0.01 0.02 0.01 0.01 0.00 0.00 0.00
MSLP
1011.29 1011.38 1011.43 1011.44 1011.45 1011.49 1011.60 1011.78 1012.06 1012.41 1012.82 1013.25 1013.67 1014.05 1014.38 1014.66 1014.90 1015.12 1015.34 1015.60 1015.89 1016.22 1016.58 1016.95 1017.31 1017.65 1017.95 1018.21 1018.43 1018.62 1018.79 1018.97 1019.15 1019.36 1019.59 1019.83 1020.08 1020.32 1020.53 1020.70 1020.81 1020.88 1020.88
1012.43 1012.47 1012.45 1012.37 1012.27 1012.19 1012.18 1012.24 1012.41 1012.68 1013.02 1013.41 1013.82 1014.22 1014.61 1014.96 1015.28 1015.59 1015.90 1016.22 1016.55 1016.90 1017.26 1017.60 1017.92 1018.20 1018.45 1018.65 1018.82 1018.96 1019.10 1019.24 1019.40 1019.57 1019.77 1019.99 1020.22 1020.43 1020.64 1020.81 1020.95 1021.05 1021.10
1013.51 1013.50 1013.39 1013.21 1013.00 1012.79 1012.65 1012.59 1012.65 1012.82 1013.10 1013.46 1013.88 1014.33 1014.79 1015.24 1015.68 1016.11 1016.52 1016.92 1017.32 1017.69 1018.04 1018.36 1018.63 1018.86 1019.04 1019.18 1019.29 1019.38 1019.47 1019.56 1019.66 1019.79 1019.94 1020.10 1020.28 1020.46 1020.64 1020.81 1020.96 1021.09 1021.19
1014.46 1014.41 1014.23 1013.96 1013.64 1013.32 1013.05 1012.87 1012.83 1012.92 1013.14 1013.49 1013.93 1014.45 1015.00 1015.57 1016.13 1016.68 1017.20 1017.69 1018.14 1018.54 1018.89 1019.17 1019.41 1019.58 1019.71 1019.79 1019.85 1019.89 1019.93 1019.97 1020.02 1020.08 1020.17 1020.26 1020.38 1020.50 1020.63 1020.78 1020.92 1021.06 1021.19
1015.27 1015.19 1014.98 1014.65 1014.25 1013.84 1013.48 1013.21 1013.08 1013.11 1013.30 1013.64 1014.11 1014.69 1015.33 1016.00 1016.68 1017.34 1017.95 1018.51 1018.99 1019.41 1019.74 1020.00 1020.19 1020.32 1020.40 1020.45 1020.47 1020.48 1020.49 1020.49 1020.49 1020.50 1020.51 1020.54 1020.57 1020.62 1020.69 1020.79 1020.90 1021.03 1021.18
1015.96 1015.91 1015.69 1015.35 1014.92 1014.47 1014.05 1013.73 1013.55 1013.54 1013.70 1014.05 1014.54 1015.16 1015.87 1016.62 1017.37 1018.10 1018.77 1019.36 1019.85 1020.25 1020.56 1020.78 1020.92 1021.02 1021.07 1021.10 1021.12 1021.12 1021.11 1021.10 1021.08 1021.04 1021.00 1020.95 1020.91 1020.88 1020.88 1020.91 1020.97 1021.07 1021.19
1016.58 1016.60 1016.44 1016.14 1015.73 1015.29 1014.87 1014.53 1014.34 1014.31 1014.46 1014.80 1015.31 1015.95 1016.68 1017.46 1018.24 1018.98 1019.65 1020.23 1020.69 1021.05 1021.30 1021.47 1021.58 1021.64 1021.68 1021.71 1021.73 1021.75 1021.76 1021.75 1021.73 1021.67 1021.59 1021.49 1021.39 1021.29 1021.21 1021.17 1021.16 1021.20 1021.29
1017.19 1017.32 1017.26 1017.05 1016.72 1016.34 1015.97 1015.66 1015.48 1015.45 1015.60 1015.93 1016.43 1017.05 1017.77 1018.53 1019.28 1019.97 1020.59 1021.10 1021.49 1021.78 1021.96 1022.07 1022.13 1022.17 1022.20 1022.23 1022.28 1022.33 1022.37 1022.39 1022.38 1022.33 1022.23 1022.10 1021.95 1021.80 1021.65 1021.54 1021.47 1021.44 1021.46
1017.83 1018.09 1018.16 1018.07 1017.86 1017.58 1017.29 1017.05 1016.90 1016.90 1017.05 1017.37 1017.82 1018.40 1019.06 1019.74 1020.41 1021.02 1021.54 1021.96 1022.26 1022.45 1022.55 1022.60 1022.61 1022.62 1022.64 1022.68 1022.75 1022.83 1022.90 1022.96 1022.97 1022.94 1022.85 1022.71 1022.53 1022.34 1022.15 1021.99 1021.86 1021.77 1021.72
1018.49 1018.89 1019.09 1019.14 1019.06 1018.91 1018.72 1018.56 1018.48 1018.50 1018.66 1018.94 1019.35 1019.86 1020.42 1021.01 1021.56 1022.06 1022.46 1022.77 1022.96 1023.06 1023.09 1023.08 1023.05 1023.03 1023.04 1023.09 1023.17 1023.27 1023.37 1023.44 1023.48 1023.46 1023.38 1023.25 1023.07 1022.87 1022.66 1022.46 1022.28 1022.14 1022.03
1019.16 1019.65 1019.98 1020.15 1020.20 1020.16 1020.08 1020.01 1019.99 1020.05 1020.21 1020.46 1020.82 1021.24 1021.70 1022.17 1022.61 1022.99 1023.29 1023.49 1023.60 1023.64 1023.61 1023.56 1023.50 1023.47 1023.46 1023.50 1023.58 1023.67 1023.77 1023.85 1023.89 1023.88 1023.81 1023.69 1023.52 1023.32 1023.11 1022.90 1022.70 1022.53 1022.37
1019.77 1020.33 1020.73 1020.99 1021.14 1021.20 1021.22 1021.22 1021.26 1021.36 1021.51 1021.74 1022.04 1022.38 1022.75 1023.12 1023.45 1023.74 1023.95 1024.09 1024.16 1024.17 1024.13 1024.06 1024.00 1023.96 1023.94 1023.96 1024.01 1024.08 1024.15 1024.21 1024.23 1024.21 1024.15 1024.04 1023.88 1023.70 1023.50 1023.30 1023.10 1022.91 1022.72
1020.30 1020.87 1021.30 1021.60 1021.80 1021.92 1022.01 1022.09 1022.17 1022.29 1022.46 1022.66 1022.91 1023.19 1023.48 1023.77 1024.03 1024.26 1024.43 1024.55 1024.62 1024.64 1024.62 1024.59 1024.54 1024.51 1024.49 1024.49 1024.50 1024.52 1024.54 1024.55 1024.54 1024.50 1024.42 1024.31 1024.17 1024.01 1023.84 1023.65 1023.46 1023.26 1023.06
1020.73 1021.26 1021.66 1021.95 1022.16 1022.32 1022.45 1022.57 1022.70 1022.84 1023.01 1023.20 1023.41 1023.64 1023.88 1024.11 1024.33 1024.54 1024.71 1024.85 1024.96 1025.03 1025.08 1025.09 1025.10 1025.09 1025.07 1025.04 1025.02 1024.98 1024.94 1024.89 1024.83 1024.75 1024.65 1024.54 1024.42 1024.28 1024.13 1023.97 1023.79 1023.60 1023.39
1021.07 1021.51 1021.85 1022.09 1022.29 1022.45 1022.60 1022.74 1022.89 1023.06 1023.23 1023.41 1023.60 1023.80 1024.00 1024.20 1024.41 1024.61 1024.81 1024.99 1025.17 1025.32 1025.44 1025.54 1025.59 1025.62 1025.61 1025.57 1025.51 1025.42 1025.32 1025.21 1025.10 1024.98 1024.86 1024.75 1024.64 1024.52 1024.40 1024.26 1024.10 1023.91 1023.70
1021.35 1021.69 1021.93 1022.12 1022.28 1022.42 1022.58 1022.73 1022.90 1023.08 1023.26 1023.44 1023.61 1023.79 1023.96 1024.14 1024.34 1024.55 1024.77 1025.01 1025.25 1025.48 1025.68 1025.85 1025.97 1026.04 1026.05 1026.01 1025.92 1025.79 1025.64 1025.49 1025.33 1025.19 1025.06 1024.95 1024.85 1024.75 1024.65 1024.53 1024.38 1024.20 1023.97
1021.59 1021.84 1022.00 1022.13 1022.25 1022.38 1022.53 1022.70 1022.88 1023.08 1023.26 1023.44 1023.60 1023.75 1023.90 1024.05 1024.23 1024.44 1024.68 1024.95 1025.23 1025.52 1025.79 1026.02 1026.19 1026.30 1026.33 1026.29 1026.19 1026.04 1025.86 1025.68 1025.51 1025.35 1025.23 1025.13 1025.05 1024.97 1024.89 1024.77 1024.63 1024.44 1024.20
1021.83 1022.00 1022.11 1022.20 1022.29 1022.41 1022.57 1022.76 1022.96 1023.17 1023.37 1023.53 1023.68 1023.80 1023.92 1024.04 1024.18 1024.37 1024.60 1024.86 1025.16 1025.47 1025.78 1026.04 1026.24 1026.38 1026.42 1026.39 1026.30 1026.15 1025.97 1025.78 1025.61 1025.47 1025.36 1025.28 1025.22 1025.16 1025.08 1024.97 1024.82 1024.62 1024.36
1022.07 1022.21 1022.29 1022.37 1022.46 1022.59 1022.77 1022.98 1023.20 1023.43 1023.63 1023.80 1023.92 1024.02 1024.09 1024.17 1024.26 1024.40 1024.59 1024.82 1025.10 1025.40 1025.70 1025.97 1026.18 1026.32 1026.39 1026.37 1026.29 1026.15 1025.99 1025.82 1025.67 1025.55 1025.46 1025.39 1025.35 1025.30 1025.23 1025.12 1024.95 1024.72 1024.42
1022.30 1022.44 1022.53 1022.62 1022.73 1022.89 1023.10 1023.34 1023.59 1023.84 1024.04 1024.21 1024.32 1024.38 1024.41 1024.44 1024.48 1024.55 1024.68 1024.86 1025.10 1025.36 1025.63 1025.89 1026.09 1026.24 1026.31 1026.30 1026.23 1026.12 1025.97 1025.83 1025.70 1025.60 1025.53 1025.48 1025.44 1025.39 1025.31 1025.18 1024.99 1024.73 1024.40
1022.48 1022.65 1022.78 1022.90 1023.06 1023.26 1023.50 1023.78 1024.06 1024.32 1024.53 1024.69 1024.79 1024.82 1024.82 1024.80 1024.79 1024.81 1024.88 1025.01 1025.19 1025.41 1025.64 1025.87 1026.06 1026.20 1026.28 1026.28 1026.23 1026.13 1026.01 1025.88 1025.77 1025.67 1025.61 1025.55 1025.50 1025.44 1025.33 1025.17 1024.94 1024.65 1024.29
1022.61 1022.82 1023.00 1023.17 1023.38 1023.62 1023.90 1024.20 1024.50 1024.78 1025.00 1025.15 1025.24 1025.26 1025.23 1025.18 1025.13 1025.11 1025.14 1025.23 1025.38 1025.56 1025.77 1025.98 1026.16 1026.30 1026.37 1026.38 1026.34 1026.25 1026.13 1026.01 1025.89 1025.78 1025.69 1025.61 1025.53 1025.43 1025.29 1025.09 1024.83 1024.50 1024.12
1022.67 1022.93 1023.16 1023.39 1023.64 1023.92 1024.22 1024.54 1024.85 1025.13 1025.34 1025.49 1025.57 1025.58 1025.55 1025.48 1025.43 1025.40 1025.42 1025.49 1025.63 1025.81 1026.01 1026.21 1026.39 1026.53 1026.61 1026.62 1026.58 1026.48 1026.36 1026.21 1026.06 1025.92 1025.79 1025.66 1025.53 1025.38 1025.19 1024.95 1024.66 1024.31 1023.91
1022.68 1022.98 1023.26 1023.53 1023.82 1024.12 1024.44 1024.76 1025.06 1025.33 1025.53 1025.67 1025.74 1025.74 1025.71 1025.66 1025.61 1025.60 1025.64 1025.74 1025.89 1026.09 1026.31 1026.53 1026.72 1026.87 1026.95 1026.96 1026.91 1026.80 1026.64 1026.46 1026.26 1026.06 1025.87 1025.68 1025.49 1025.28 1025.05 1024.78 1024.46 1024.10 1023.69
1022.67 1023.01 1023.33 1023.63 1023.93 1024.25 1024.56 1024.87 1025.14 1025.38 1025.55 1025.67 1025.72 1025.72 1025.69 1025.66 1025.65 1025.67 1025.75 1025.90 1026.09 1026.33 1026.58 1026.83 1027.05 1027.21 1027.30 1027.31 1027.24 1027.10 1026.90 1026.67 1026.41 1026.15 1025.90 1025.65 1025.40 1025.15 1024.88 1024.59 1024.27 1023.91 1023.52
1022.69 1023.05 1023.39 1023.71 1024.03 1024.34 1024.63 1024.90 1025.14 1025.32 1025.45 1025.52 1025.55 1025.54 1025.52 1025.50 1025.52 1025.58 1025.71 1025.91 1026.16 1026.44 1026.74 1027.03 1027.27 1027.44 1027.53 1027.53 1027.44 1027.27 1027.04 1026.75 1026.45 1026.14 1025.83 1025.54 1025.25 1024.98 1024.70 1024.41 1024.11 1023.77 1023.41
Thickness
5703 5706 5708 5711 5713 5714 5715 5715 5714 5715 5713 5711 5709 5706 5703 5701 5700 5699 5699 5698 5698 5698 5696 5697 5697 5698 5698 5697 5695 5694 5692 5691 5691 5690 5686 5683 5682 5680 5678 5676 5675 5673 5670
5691 5693 5697 5701 5703 5703 5704 5705 5706 5707 5706 5705 5702 5700 5697 5694 5692 5690 5690 5690 5690 5689 5689 5689 5690 5690 5690 5689 5687 5687 5685 5683 5684 5684 5681 5676 5673 5670 5669 5667 5666 5664 5662
5680 5682 5685 5688 5692 5693 5694 5696 5697 5699 5699 5698 5696 5693 5689 5686 5682 5680 5680 5680 5680 5679 5679 5680 5680 5682 5683 5681 5680 5680 5678 5677 5676 5677 5676 5674 5671 5665 5659 5656 5655 5653 5652
5670 5673 5675 5676 5679 5682 5685 5687 5689 5690 5690 5691 5691 5687 5683 5678 5675 5672 5670 5668 5668 5669 5669 5669 5670 5672 5673 5672 5672 5672 5671 5670 5669 5667 5667 5667 5667 5661 5653 5648 5645 5642 5640
5660 5662 5664 5666 5668 5672 5675 5677 5679 5680 5681 5682 5682 5679 5676 5671 5667 5663 5659 5657 5657 5657 5658 5658 5659 5660 5661 5661 5661 5661 5660 5661 5661 5661 5659 5657 5656 5656 5651 5644 5638 5634 5631
5651 5652 5653 5656 5658 5661 5664 5667 5668 5669 5670 5671 5671 5669 5666 5662 5657 5651 5649 5646 5645 5645 5645 5647 5648 5648 5649 5649 5649 5649 5648 5647 5647 5649 5649 5649 5648 5646 5643 5639 5631 5626 5620
5642 5641 5642 5645 5647 5649 5652 5655 5656 5657 5658 5659 5658 5657 5654 5651 5647 5642 5639 5636 5635 5634 5633 5634 5634 5635 5635 5635 5635 5636 5635 5634 5634 5635 5634 5635 5634 5633 5632 5629 5624 5617 5611
5632 5631 5631 5633 5636 5638 5640 5642 5643 5644 5644 5645 5644 5643 5641 5639 5634 5631 5628 5625 5623 5621 5621 5621 5621 5621 5621 5622 5622 5623 5622 5621 5621 5621 5620 5621 5620 5620 5619 5617 5615 5610 5605
5621 5621 5621 5622 5624 5626 5627 5629 5631 5631 5631 5631 5630 5629 5627 5624 5621 5618 5616 5613 5610 5610 5609 5609 5609 5608 5608 5608 5610 5609 5609 5608 5609 5608 5607 5607 5606 5605 5604 5603 5603 5601 5599
5611 5610 5610 5611 5612 5613 5615 5616 5617 5617 5617 5617 5618 5616 5613 5610 5608 5606 5603 5601 5599 5599 5598 5597 5597 5596 5596 5596 5598 5598 5595 5594 5593 5592 5591 5592 5591 5590 5589 5589 5588 5586 5586
5602 5601 5600 5601 5601 5602 5603 5603 5604 5604 5604 5603 5602 5601 5599 5598 5596 5594 5592 5590 5588 5588 5587 5586 5585 5585 5584 5584 5585 5585 5583 5582 5581 5580 5579 5576 5576 5577 5576 5575 5574 5573 5572
5594 5592 5591 5591 5590 5590 5590 5590 5590 5590 5590 5589 5588 5586 5585 5585 5584 5582 5579 5577 5577 5577 5576 5574 5573 5573 5573 5572 5573 5573 5572 5571 5569 5567 5565 5564 5562 5561 5562 5561 5560 5558 5555
5586 5584 5582 5580 5579 5578 5578 5577 5577 5576 5576 5576 5574 5572 5571 5571 5570 5568 5566 5566 5566 5565 5564 5563 5562 5562 5561 5561 5561 5561 5560 5558 5557 5555 5553 5551 5550 5549 5548 5547 5547 5546 5543
5579 5576 5572 5570 5568 5567 5566 5565 5564 5564 5564 5563 5562 5560 5558 5558 5558 5557 5555 5554 5554 5554 5553 5552 5552 5552 5551 5551 5550 5549 5548 5546 5544 5542 5540 5539 5537 5535 5534 5534 5533 5532 5531
5571 5568 5564 5561 5559 5557 5555 5554 5553 5553 5553 5553 5551 5549 5548 5547 5547 5546 5544 5543 5543 5544 5544 5543 5542 5542 5541 5539 5538 5538 5538 5536 5534 5531 5529 5526 5522 5519 5519 5521 5521 5521 5522
5565 5560 5556 5552 5550 5548 5546 5545 5543 5543 5542 5542 5541 5540 5539 5538 5537 5536 5534 5533 5533 5534 5534 5533 5533 5531 5528 5523 5523 5525 5527 5526 5524 5522 5519 5517 5514 5510 5508 5506 5505 5504 5508
5558 5553 5549 5545 5541 5539 5538 5537 5535 5534 5533 5533 5532 5531 5530 5529 5529 5528 5526 5525 5524 5524 5524 5523 5522 5520 5514 5512 5512 5513 5516 5516 5514 5512 5511 5511 5506 5504 5504 5501 5498 5497 5495
5552 5546 5541 5537 5534 5531 5530 5528 5527 5526 5526 5525 5525 5523 5522 5521 5520 5519 5518 5517 5516 5515 5514 5513 5512 5509 5504 5502 5502 5503 5506 5506 5504 5503 5501 5500 5498 5495 5493 5496 5496 5495 5493
5546 5539 5534 5530 5527 5525 5523 5521 5519 5518 5518 5517 5516 5515 5514 5513 5512 5511 5509 5508 5508 5507 5506 5504 5503 5501 5496 5492 5493 5493 5499 5498 5497 5495 5493 5491 5490 5483 5483 5486 5489 5489 5488
5538 5532 5527 5523 5520 5518 5516 5514 5512 5511 5510 5508 5508 5507 5506 5505 5504 5503 5502 5501 5500 5499 5499 5496 5495 5493 5489 5484 5484 5484 5494 5493 5493 5490 5487 5480 5479 5476 5476 5480 5482 5483 5482
5531 5526 5522 5518 5514 5511 5510 5508 5506 5504 5502 5502 5501 5500 5498 5497 5496 5495 5494 5494 5493 5492 5490 5489 5487 5485 5481 5477 5476 5476 5483 5486 5486 5486 5484 5478 5472 5471 5471 5471 5474 5472 5471
5525 5521 5517 5512 5508 5506 5504 5502 5499 5497 5496 5496 5495 5493 5491 5491 5490 5488 5487 5487 5486 5485 5484 5483 5481 5479 5476 5472 5470 5470 5470 5471 5477 5478 5477 5471 5467 5466 5466 5467 5466 5467 5467
5520 5516 5512 5508 5504 5501 5499 5496 5493 5492 5491 5490 5488 5487 5485 5484 5483 5482 5482 5482 5481 5482 5482 5480 5478 5476 5473 5469 5465 5465 5465 5465 5469 5469 5464 5463 5463 5463 5464 5463 5464 5465 5469
5516 5512 5509 5504 5500 5497 5494 5492 5490 5488 5487 5485 5483 5482 5480 5479 5477 5477 5478 5478 5477 5477 5476 5475 5473 5471 5470 5468 5465 5465 5466 5463 5465 5466 5463 5460 5460 5461 5461 5462 5464 5465 5464
5512 5509 5505 5501 5497 5493 5491 5489 5486 5485 5483 5481 5480 5480 5478 5476 5474 5473 5469 5470 5466 5465 5466 5467 5467 5466 5465 5455 5451 5454 5459 5459 5460 5460 5465 5465 5464 5464 5463 5463 5462 5461 5462
5510 5506 5502 5498 5494 5491 5488 5485 5483 5482 5480 5479 5479 5478 5477 5474 5473 5470 5466 5458 5458 5455 5454 5453 5454 5455 5451 5449 5448 5448 5449 5451 5452 5456 5462 5461 5461 5460 5459 5459 5459 5459 5458